NIMBUS 2 DEB, 39295

Orbit data source: Space-Track

NIMBUS 2 DEB, 39295 is space debris in SSO originally from a launch on Sun, 15 May 1966 UTC launched from the Air Force Western Test Range (AFWTR). Debris objects in space refer to the collection of defunct objects orbiting the Earth. Examples of debris include non-operational satellites, rocket bodies, and fragments generated from explosions, collisions, or faulty payload assembly.

Loading next visibility...
Identifier
39295, 1966-040BD
Orbit
SSO
Country
Flag of USUS
Related business
Manufacturer
Unknown
Mission
Spacecraft
Bus & Motor
Unknown
Mass
Unknown
Launch date (UTC)
1966-05-15 (59 years ago)
Launch vehicle
Unknown
Launch site
Air Force Western Test Range (AFWTR)
Object type
Payload
Rocket body
Debris
Shape & HBR
Unknown shape, 0.1 m
Radar Cross Section
Small (<0.1 m²)

Expand to show TLE details & history
Last TLE update: 1 day ago

TLE from 1 day ago
0 NIMBUS 2 DEB
1 39295U 66040BD  25286.03912286  .00002955  00000-0  47997-2 0  9997
2 39295 100.4209 206.8475 0064716  54.2202 306.4922 13.48113409586994
Epoch: 2025-10-13T00:56Z
TLE epoch observation values (Epoch: 2025-10-13T00:56:20.215Z)
Latitude
-0°
Longitude
170.91564°
Altitude
1,053.462 km
Speed
7.339 km/s
True Right ascension
13h 47m 23s
True Declination
0° 00' 00"
Sunlit
Object was in daylight at epoch
Visualization orbit readout
Latitude
Unknown
Longitude
Unknown
Altitude
Unknown
Speed
Unknown
Apparent Right ascension
Unknown
Apparent Declination
Unknown
Sunlit
N/A
Visualization observer readout
Local Sidereal Time
04:40:19
Azimuth
Unknown
Elevation
Unknown
Doppler factor
Unknown
Orbital elements
Apogee altitude
1,124.794 km
Perigee altitude
1,028.306 km
Semi-major axis
7,454.687 km
Eccentricity
0.00647
Inclination
100.4209°
RAAN
206.8475°
Arg. of periapsis
54.2202°
True anomaly
305.89314°
Mean anomaly
306.4922°
Eccentric anomaly
306.19296°
Mean motion
3.37209 °/min
Orbital period
106.76 mins
BSTAR
0.0047997
Loading maneuver chart data...
Computing Atmospheric mass density...
Loading historical data...
Loading historical data...
Loading historical data...
Loading historical data...
Loading historical data...
Loading historical data...
Loading historical data...

Documentation

Showing up to 5 results
|